• En España
  • Lista de países
  • Para 7 días
  • Temperatura del agua
  • Mapa Satelital
  • El tiempo en el mapa
  • Informadores
  • user-avatar
    Iniciar sesión

    Tiempo cada hora Mayrhofen

    Hoy, 22 Julio, Domingo

    Tiempo Temperatura Precipitaciones Viento Presión Humedad
    00:00 +10°C° 0,6 mm 1 mps 617 mmHg 97%
    01:00 +10°C° 0,6 mm 1 mps 617 mmHg 97%
    02:00 +9°C° 0,3 mm 1 mps 617 mmHg 96%
    03:00 +8°C° 0,3 mm 2 mps 617 mmHg 96%
    04:00 +8°C° 0,3 mm 2 mps 616 mmHg 96%
    05:00 +8°C° 0,1 mm 2 mps 617 mmHg 95%
    06:00 +9°C° 0,1 mm 2 mps 617 mmHg 93%
    07:00 +9°C° 0,1 mm 2 mps 617 mmHg 92%
    08:00 +12°C° 0,1 mm 2 mps 618 mmHg 86%
    09:00 +13°C° 0,1 mm 2 mps 618 mmHg 81%
    10:00 +14°C° 0,1 mm 2 mps 618 mmHg 75%
    11:00 +15°C° 0,4 mm 2 mps 619 mmHg 73%
    12:00 +16°C° 0,4 mm 2 mps 619 mmHg 71%
    13:00 +16°C° 0,4 mm 2 mps 619 mmHg 69%
    14:00 +16°C° 0,7 mm 2 mps 619 mmHg 73%
    15:00 +15°C° 0,7 mm 2 mps 618 mmHg 77%
    16:00 +15°C° 0,7 mm 2 mps 618 mmHg 81%
    17:00 +14°C° 0,6 mm 2 mps 618 mmHg 84%
    18:00 +13°C° 0,6 mm 2 mps 618 mmHg 88%
    19:00 +13°C° 0,6 mm 1 mps 618 mmHg 91%
    20:00 +12°C° 0,5 mm 1 mps 618 mmHg 93%
    21:00 +11°C° 0,5 mm 1 mps 618 mmHg 94%
    22:00 +10°C° 0,5 mm 2 mps 618 mmHg 96%
    23:00 +10°C° 0,3 mm 2 mps 618 mmHg 96%

    Mañana, 23 Julio, Lunes

    Tiempo Temperatura Precipitaciones Viento Presión Humedad
    00:00 +9°C° 0,3 mm 2 mps 618 mmHg 96%
    01:00 +9°C° 0,3 mm 2 mps 617 mmHg 96%
    02:00 +9°C° 0,2 mm 2 mps 617 mmHg 96%
    03:00 +9°C° 0,2 mm 2 mps 617 mmHg 97%
    04:00 +9°C° 0,2 mm 2 mps 617 mmHg 97%
    05:00 +9°C° 0,4 mm 2 mps 618 mmHg 96%
    06:00 +10°C° 0,4 mm 2 mps 618 mmHg 95%
    07:00 +10°C° 0,4 mm 2 mps 618 mmHg 94%
    08:00 +10°C° 0,5 mm 2 mps 619 mmHg 92%
    09:00 +12°C° 0,5 mm 2 mps 619 mmHg 90%
    10:00 +12°C° 0,5 mm 2 mps 619 mmHg 88%
    11:00 +14°C° 0,1 mm 2 mps 620 mmHg 80%
    12:00 +16°C° 0,1 mm 2 mps 620 mmHg 72%
    13:00 +17°C° 0,1 mm 2 mps 621 mmHg 64%
    14:00 +18°C° 0 mm 2 mps 621 mmHg 62%
    15:00 +18°C° 0 mm 2 mps 621 mmHg 59%
    16:00 +18°C° 0 mm 3 mps 621 mmHg 57%
    17:00 +17°C° 0,1 mm 2 mps 621 mmHg 64%
    18:00 +16°C° 0,1 mm 2 mps 620 mmHg 71%
    19:00 +15°C° 0,1 mm 2 mps 620 mmHg 78%
    20:00 +13°C° 0 mm 2 mps 620 mmHg 83%
    21:00 +12°C° 0 mm 2 mps 620 mmHg 88%
    22:00 +10°C° 0 mm 1 mps 620 mmHg 94%
    23:00 +10°C° 0 mm 1 mps 619 mmHg 94%

    Pasado mañana, 24 Julio, Martes

    Tiempo Temperatura Precipitaciones Viento Presión Humedad
    00:00 +9°C° 0 mm 1 mps 619 mmHg 94%
    01:00 +9°C° 0 mm 1 mps 618 mmHg 94%
    02:00 +8°C° 0 mm 1 mps 618 mmHg 93%
    03:00 +8°C° 0 mm 1 mps 618 mmHg 92%
    04:00 +8°C° 0 mm 1 mps 618 mmHg 91%
    05:00 +10°C° 0 mm 1 mps 618 mmHg 85%
    06:00 +12°C° 0 mm 1 mps 619 mmHg 79%
    07:00 +14°C° 0 mm 1 mps 620 mmHg 73%
    08:00 +16°C° 0 mm 1 mps 620 mmHg 65%
    09:00 +19°C° 0 mm 1 mps 621 mmHg 57%
    10:00 +21°C° 0 mm 1 mps 622 mmHg 49%
    11:00 +22°C° 0 mm 1 mps 622 mmHg 47%
    12:00 +21°C° 0 mm 2 mps 622 mmHg 45%
    13:00 +23°C° 0 mm 2 mps 622 mmHg 43%
    14:00 +23°C° 0,1 mm 2 mps 621 mmHg 46%
    15:00 +21°C° 0,1 mm 2 mps 621 mmHg 49%
    16:00 +21°C° 0,1 mm 3 mps 621 mmHg 51%
    17:00 +20°C° 0,2 mm 2 mps 621 mmHg 61%
    18:00 +18°C° 0,2 mm 2 mps 620 mmHg 70%
    19:00 +17°C° 0,2 mm 2 mps 620 mmHg 80%
    20:00 +15°C° 0,1 mm 1 mps 619 mmHg 85%
    21:00 +13°C° 0,1 mm 1 mps 619 mmHg 91%
    22:00 +11°C° 0,1 mm 1 mps 618 mmHg 96%
    23:00 +11°C° 0 mm 1 mps 618 mmHg 96%

    25 Julio, Miércoles

    Tiempo Temperatura Precipitaciones Viento Presión Humedad
    00:00 +11°C° 0 mm 1 mps 618 mmHg 97%
    01:00 +10°C° 0 mm 1 mps 618 mmHg 97%
    02:00 +10°C° 0 mm 1 mps 618 mmHg 97%
    03:00 +10°C° 0 mm 1 mps 618 mmHg 97%
    04:00 +10°C° 0 mm 1 mps 618 mmHg 97%
    05:00 +11°C° 0 mm 1 mps 618 mmHg 93%
    06:00 +12°C° 0 mm 1 mps 619 mmHg 90%
    07:00 +14°C° 0 mm 1 mps 620 mmHg 86%
    08:00 +16°C° 0 mm 1 mps 620 mmHg 74%
    09:00 +19°C° 0 mm 1 mps 621 mmHg 61%
    10:00 +20°C° 0 mm 2 mps 622 mmHg 49%
    11:00 +21°C° 0 mm 2 mps 622 mmHg 46%
    12:00 +21°C° 0 mm 2 mps 622 mmHg 44%
    13:00 +23°C° 0 mm 2 mps 622 mmHg 42%
    14:00 +23°C° 0,1 mm 2 mps 622 mmHg 44%
    15:00 +23°C° 0,1 mm 2 mps 622 mmHg 46%
    16:00 +21°C° 0,1 mm 2 mps 621 mmHg 49%
    17:00 +20°C° 0,2 mm 2 mps 621 mmHg 58%
    18:00 +19°C° 0,2 mm 2 mps 621 mmHg 68%
    19:00 +17°C° 0,2 mm 2 mps 620 mmHg 78%
    20:00 +15°C° 0,1 mm 1 mps 620 mmHg 84%
    21:00 +14°C° 0,1 mm 1 mps 619 mmHg 89%
    22:00 +12°C° 0,1 mm 1 mps 619 mmHg 95%
    23:00 +11°C° 0 mm 1 mps 619 mmHg 96%

    26 Julio, Jueves

    Tiempo Temperatura Precipitaciones Viento Presión Humedad
    00:00 +11°C° 0 mm 1 mps 619 mmHg 96%
    01:00 +11°C° 0 mm 1 mps 619 mmHg 96%
    02:00 +11°C° 0 mm 1 mps 618 mmHg 96%
    03:00 +10°C° 0 mm 1 mps 618 mmHg 96%
    04:00 +10°C° 0 mm 1 mps 618 mmHg 96%
    05:00 +12°C° 0 mm 1 mps 619 mmHg 93%
    06:00 +13°C° 0 mm 1 mps 620 mmHg 89%
    07:00 +14°C° 0 mm 1 mps 620 mmHg 85%
    08:00 +16°C° 0 mm 1 mps 621 mmHg 73%
    09:00 +18°C° 0 mm 2 mps 622 mmHg 61%
    10:00 +20°C° 0 mm 2 mps 622 mmHg 49%
    11:00 +21°C° 0 mm 2 mps 622 mmHg 48%
    12:00 +21°C° 0 mm 2 mps 622 mmHg 47%
    13:00 +23°C° 0 mm 2 mps 623 mmHg 46%
    14:00 +22°C° 0,3 mm 3 mps 622 mmHg 49%
    15:00 +21°C° 0,3 mm 3 mps 622 mmHg 53%
    16:00 +21°C° 0,3 mm 3 mps 622 mmHg 57%
    17:00 +19°C° 0,5 mm 2 mps 622 mmHg 65%
    18:00 +18°C° 0,5 mm 2 mps 621 mmHg 74%
    19:00 +17°C° 0,5 mm 2 mps 621 mmHg 82%
    20:00 +15°C° 0,1 mm 1 mps 621 mmHg 86%
    21:00 +13°C° 0,1 mm 1 mps 620 mmHg 91%
    22:00 +12°C° 0,1 mm 1 mps 620 mmHg 95%
    23:00 +11°C° 0 mm 1 mps 620 mmHg 96%

    27 Julio, Viernes

    Tiempo Temperatura Precipitaciones Viento Presión Humedad
    00:00 +11°C° 0 mm 1 mps 619 mmHg 96%
    01:00 +10°C° 0 mm 1 mps 619 mmHg 96%
    02:00 +10°C° 0 mm 1 mps 619 mmHg 96%
    03:00 +10°C° 0 mm 1 mps 619 mmHg 96%
    04:00 +10°C° 0 mm 1 mps 619 mmHg 95%
    05:00 +11°C° 0 mm 1 mps 619 mmHg 91%
    06:00 +12°C° 0 mm 0 mps 620 mmHg 87%
    07:00 +14°C° 0 mm 0 mps 621 mmHg 82%
    08:00 +16°C° 0 mm 0 mps 621 mmHg 72%
    09:00 +18°C° 0 mm 0 mps 622 mmHg 62%
    10:00 +22°C° 0 mm 1 mps 623 mmHg 52%
    11:00 +22°C° 0,1 mm 1 mps 623 mmHg 49%
    12:00 +23°C° 0,1 mm 1 mps 622 mmHg 46%
    13:00 +24°C° 0,1 mm 1 mps 622 mmHg 43%
    14:00 +23°C° 0,4 mm 1 mps 622 mmHg 47%
    15:00 +23°C° 0,4 mm 2 mps 622 mmHg 50%
    16:00 +21°C° 0,4 mm 2 mps 622 mmHg 53%
    17:00 +20°C° 1 mm 2 mps 621 mmHg 63%
    18:00 +20°C° 1 mm 1 mps 621 mmHg 73%
    19:00 +18°C° 1 mm 1 mps 621 mmHg 82%
    20:00 +16°C° 0,7 mm 1 mps 620 mmHg 86%
    21:00 +14°C° 0,7 mm 1 mps 620 mmHg 89%
    22:00 +13°C° 0,7 mm 1 mps 620 mmHg 93%
    23:00 +12°C° 0,2 mm 1 mps 619 mmHg 93%
    Mostrar más